LOCATION_NAME,SAMPLE COLLECTION TIME,DOSE EQUIVALENT RATE (nSv/h),GAMMA COUNT RATE R02 (CPM),GAMMA COUNT RATE R03 (CPM),GAMMA COUNT RATE R04 (CPM),GAMMA COUNT RATE R05 (CPM),GAMMA COUNT RATE R06 (CPM),GAMMA COUNT RATE R07 (CPM),GAMMA COUNT RATE R08 (CPM),GAMMA COUNT RATE R09 (CPM),STATUS
FL: JACKSONVILLE,01/01/2016 00:15:00,,1270.00,730.00,222.00,103.00,65.00,82.00,43.00,23.00,APPROVED
FL: JACKSONVILLE,01/01/2016 01:15:00,,1267.00,719.00,216.00,98.00,63.00,79.00,39.00,22.00,APPROVED
FL: JACKSONVILLE,01/01/2016 02:16:00,,1265.00,721.00,220.00,99.00,62.00,80.00,38.00,22.00,APPROVED
FL: JACKSONVILLE,01/01/2016 03:16:00,,1274.00,725.00,218.00,98.00,61.00,79.00,40.00,23.00,APPROVED
FL: JACKSONVILLE,01/01/2016 04:16:00,,1289.00,734.00,219.00,99.00,66.00,82.00,40.00,22.00,APPROVED
FL: JACKSONVILLE,01/01/2016 05:16:00,,1309.00,751.00,222.00,102.00,64.00,85.00,39.00,22.00,APPROVED
FL: JACKSONVILLE,01/01/2016 06:16:00,,1311.00,755.00,228.00,105.00,66.00,85.00,42.00,23.00,APPROVED
FL: JACKSONVILLE,01/01/2016 07:17:00,,1299.00,759.00,232.00,104.00,65.00,86.00,42.00,21.00,APPROVED
FL: JACKSONVILLE,01/01/2016 08:17:00,,1308.00,761.00,229.00,106.00,66.00,86.00,42.00,22.00,APPROVED
FL: JACKSONVILLE,01/01/2016 09:17:00,,1330.00,790.00,233.00,109.00,68.00,87.00,44.00,22.00,APPROVED
FL: JACKSONVILLE,01/01/2016 10:17:00,,1382.00,813.00,247.00,116.00,71.00,93.00,46.00,23.00,APPROVED
FL: JACKSONVILLE,01/01/2016 11:17:00,,1465.00,922.00,277.00,131.00,78.00,105.00,52.00,25.00,APPROVED
FL: JACKSONVILLE,01/01/2016 12:18:00,,1474.00,959.00,288.00,138.00,84.00,112.00,55.00,26.00,APPROVED
FL: JACKSONVILLE,01/01/2016 13:18:00,,1469.00,936.00,285.00,137.00,81.00,112.00,55.00,26.00,APPROVED
FL: JACKSONVILLE,01/01/2016 14:18:00,,1569.00,1029.00,315.00,148.00,86.00,119.00,58.00,26.00,APPROVED
FL: JACKSONVILLE,01/01/2016 15:18:00,,1385.00,859.00,270.00,125.00,78.00,103.00,49.00,24.00,APPROVED
FL: JACKSONVILLE,01/01/2016 16:18:00,,1269.00,758.00,238.00,108.00,69.00,91.00,46.00,22.00,APPROVED
FL: JACKSONVILLE,01/01/2016 17:19:00,,1217.00,711.00,224.00,101.00,64.00,85.00,41.00,24.00,APPROVED
FL: JACKSONVILLE,01/01/2016 18:19:00,,1208.00,698.00,218.00,99.00,65.00,82.00,41.00,22.00,APPROVED
FL: JACKSONVILLE,01/01/2016 19:19:00,,1296.00,758.00,238.00,105.00,69.00,89.00,41.00,23.00,APPROVED
FL: JACKSONVILLE,01/01/2016 20:19:00,,1275.00,750.00,232.00,103.00,66.00,89.00,41.00,23.00,APPROVED
FL: JACKSONVILLE,01/01/2016 21:19:00,,1339.00,796.00,244.00,109.00,70.00,91.00,42.00,22.00,APPROVED
FL: JACKSONVILLE,01/01/2016 22:20:00,,1440.00,879.00,272.00,117.00,76.00,100.00,44.00,23.00,APPROVED
FL: JACKSONVILLE,01/01/2016 23:20:00,,1437.00,868.00,270.00,115.00,73.00,100.00,45.00,24.00,APPROVED
FL: JACKSONVILLE,01/02/2016 00:20:00,,1364.00,798.00,248.00,108.00,70.00,94.00,39.00,23.00,APPROVED
FL: JACKSONVILLE,01/02/2016 01:20:00,,1308.00,739.00,226.00,100.00,65.00,85.00,36.00,22.00,APPROVED
FL: JACKSONVILLE,01/02/2016 02:20:00,,1295.00,730.00,222.00,95.00,66.00,83.00,36.00,22.00,APPROVED
FL: JACKSONVILLE,01/02/2016 03:21:00,,1309.00,738.00,226.00,97.00,64.00,84.00,35.00,22.00,APPROVED
FL: JACKSONVILLE,01/02/2016 04:21:00,,1338.00,763.00,234.00,100.00,67.00,89.00,38.00,23.00,APPROVED
FL: JACKSONVILLE,01/02/2016 05:21:00,,1365.00,797.00,242.00,108.00,71.00,93.00,38.00,22.00,APPROVED
FL: JACKSONVILLE,01/02/2016 06:21:00,,1404.00,829.00,256.00,113.00,71.00,97.00,40.00,23.00,APPROVED
FL: JACKSONVILLE,01/02/2016 07:21:00,,1401.00,833.00,262.00,112.00,71.00,98.00,42.00,23.00,APPROVED
FL: JACKSONVILLE,01/02/2016 08:22:00,,1415.00,842.00,261.00,114.00,73.00,96.00,42.00,24.00,APPROVED
FL: JACKSONVILLE,01/02/2016 09:22:00,,1447.00,862.00,277.00,112.00,74.00,101.00,42.00,22.00,APPROVED
FL: JACKSONVILLE,01/02/2016 10:22:00,,1443.00,866.00,270.00,115.00,75.00,101.00,42.00,23.00,APPROVED
FL: JACKSONVILLE,01/02/2016 11:22:00,,1431.00,856.00,265.00,114.00,73.00,100.00,42.00,23.00,APPROVED
FL: JACKSONVILLE,01/02/2016 12:22:00,,1427.00,851.00,268.00,112.00,73.00,100.00,39.00,23.00,APPROVED
FL: JACKSONVILLE,01/02/2016 13:23:00,,1427.00,841.00,267.00,111.00,72.00,98.00,39.00,23.00,APPROVED
FL: JACKSONVILLE,01/02/2016 14:23:00,,1419.00,847.00,263.00,112.00,72.00,98.00,41.00,23.00,APPROVED
FL: JACKSONVILLE,01/02/2016 15:23:00,,1418.00,837.00,265.00,111.00,75.00,98.00,41.00,23.00,APPROVED
FL: JACKSONVILLE,01/02/2016 16:23:00,,1421.00,834.00,264.00,109.00,73.00,100.00,39.00,22.00,APPROVED
FL: JACKSONVILLE,01/02/2016 17:23:00,,1407.00,832.00,258.00,110.00,71.00,99.00,42.00,23.00,APPROVED
FL: JACKSONVILLE,01/02/2016 18:24:00,,1377.00,819.00,258.00,108.00,71.00,95.00,39.00,23.00,APPROVED
FL: JACKSONVILLE,01/02/2016 19:24:00,,1371.00,801.00,255.00,104.00,71.00,94.00,39.00,23.00,APPROVED
FL: JACKSONVILLE,01/02/2016 20:24:00,,1352.00,785.00,250.00,106.00,70.00,94.00,38.00,23.00,APPROVED
FL: JACKSONVILLE,01/02/2016 21:24:00,,1349.00,788.00,246.00,105.00,70.00,91.00,39.00,22.00,APPROVED
FL: JACKSONVILLE,01/02/2016 22:24:00,,1366.00,783.00,245.00,103.00,68.00,91.00,37.00,23.00,APPROVED
FL: JACKSONVILLE,01/02/2016 23:25:00,,1370.00,786.00,241.00,103.00,69.00,90.00,37.00,22.00,APPROVED
FL: JACKSONVILLE,01/03/2016 00:25:00,,1367.00,782.00,243.00,102.00,69.00,93.00,37.00,23.00,APPROVED
FL: JACKSONVILLE,01/03/2016 01:25:00,,1364.00,782.00,242.00,103.00,69.00,89.00,38.00,21.00,APPROVED
FL: JACKSONVILLE,01/03/2016 02:25:00,,1358.00,778.00,242.00,103.00,68.00,90.00,37.00,22.00,APPROVED
FL: JACKSONVILLE,01/03/2016 03:25:00,,1370.00,774.00,243.00,102.00,70.00,91.00,37.00,23.00,APPROVED
FL: JACKSONVILLE,01/03/2016 04:26:00,,1371.00,783.00,241.00,101.00,68.00,89.00,37.00,23.00,APPROVED
FL: JACKSONVILLE,01/03/2016 05:26:00,,1373.00,776.00,238.00,104.00,67.00,91.00,36.00,22.00,APPROVED
FL: JACKSONVILLE,01/03/2016 06:26:00,,1412.00,814.00,254.00,107.00,71.00,93.00,39.00,22.00,APPROVED
FL: JACKSONVILLE,01/03/2016 07:26:00,,1446.00,833.00,260.00,109.00,73.00,96.00,40.00,23.00,APPROVED
FL: JACKSONVILLE,01/03/2016 08:26:00,,1451.00,842.00,260.00,110.00,73.00,96.00,38.00,22.00,APPROVED
FL: JACKSONVILLE,01/03/2016 09:27:00,,1466.00,859.00,265.00,112.00,73.00,96.00,39.00,23.00,APPROVED
FL: JACKSONVILLE,01/03/2016 10:27:00,,1442.00,825.00,255.00,108.00,72.00,93.00,38.00,22.00,APPROVED
FL: JACKSONVILLE,01/03/2016 11:27:00,,1404.00,802.00,249.00,106.00,69.00,94.00,36.00,23.00,APPROVED
FL: JACKSONVILLE,01/03/2016 12:27:00,,1420.00,827.00,255.00,109.00,72.00,93.00,37.00,22.00,APPROVED
FL: JACKSONVILLE,01/03/2016 13:27:00,,1462.00,848.00,261.00,110.00,71.00,99.00,39.00,24.00,APPROVED
FL: JACKSONVILLE,01/03/2016 14:28:00,,1432.00,836.00,260.00,109.00,74.00,95.00,39.00,22.00,APPROVED
FL: JACKSONVILLE,01/03/2016 15:28:00,,1410.00,808.00,250.00,107.00,69.00,92.00,37.00,23.00,APPROVED
FL: JACKSONVILLE,01/03/2016 16:28:00,,1383.00,788.00,245.00,102.00,70.00,91.00,37.00,22.00,APPROVED
FL: JACKSONVILLE,01/03/2016 17:28:00,,1357.00,773.00,239.00,104.00,66.00,91.00,35.00,23.00,APPROVED
FL: JACKSONVILLE,01/03/2016 18:28:00,,1342.00,761.00,239.00,101.00,67.00,88.00,37.00,21.00,APPROVED
FL: JACKSONVILLE,01/03/2016 19:29:00,,1343.00,755.00,235.00,99.00,67.00,87.00,36.00,23.00,APPROVED
FL: JACKSONVILLE,01/03/2016 20:29:00,,1327.00,754.00,232.00,98.00,67.00,87.00,35.00,22.00,APPROVED
FL: JACKSONVILLE,01/03/2016 21:29:00,,1334.00,749.00,230.00,98.00,65.00,85.00,35.00,22.00,APPROVED
FL: JACKSONVILLE,01/03/2016 22:29:00,,1330.00,745.00,227.00,100.00,66.00,84.00,32.00,22.00,APPROVED
FL: JACKSONVILLE,01/03/2016 23:29:00,,1326.00,739.00,225.00,97.00,65.00,84.00,34.00,21.00,APPROVED
FL: JACKSONVILLE,01/04/2016 00:30:00,,1320.00,724.00,223.00,96.00,64.00,81.00,33.00,22.00,APPROVED
FL: JACKSONVILLE,01/04/2016 01:30:00,,1323.00,718.00,221.00,96.00,65.00,81.00,34.00,21.00,APPROVED
FL: JACKSONVILLE,01/04/2016 02:30:00,,1316.00,727.00,221.00,98.00,65.00,81.00,33.00,21.00,APPROVED
FL: JACKSONVILLE,01/04/2016 03:30:00,,1314.00,714.00,215.00,95.00,64.00,81.00,33.00,22.00,APPROVED
FL: JACKSONVILLE,01/04/2016 04:30:00,,1321.00,725.00,223.00,96.00,65.00,82.00,34.00,21.00,APPROVED
FL: JACKSONVILLE,01/04/2016 05:31:00,,1320.00,727.00,219.00,95.00,64.00,80.00,34.00,22.00,APPROVED
FL: JACKSONVILLE,01/04/2016 06:31:00,,1329.00,731.00,223.00,94.00,63.00,82.00,33.00,22.00,APPROVED
FL: JACKSONVILLE,01/04/2016 07:31:00,,1338.00,740.00,226.00,96.00,64.00,82.00,33.00,22.00,APPROVED
FL: JACKSONVILLE,01/04/2016 08:31:00,,1350.00,749.00,228.00,96.00,63.00,84.00,34.00,21.00,APPROVED
FL: JACKSONVILLE,01/04/2016 09:31:00,,1360.00,751.00,225.00,99.00,64.00,86.00,34.00,23.00,APPROVED
FL: JACKSONVILLE,01/04/2016 10:32:00,,1370.00,762.00,235.00,98.00,66.00,86.00,34.00,22.00,APPROVED
FL: JACKSONVILLE,01/04/2016 11:32:00,,1389.00,775.00,235.00,101.00,67.00,86.00,34.00,23.00,APPROVED
FL: JACKSONVILLE,01/04/2016 12:32:00,,1385.00,789.00,240.00,102.00,66.00,87.00,35.00,22.00,APPROVED
FL: JACKSONVILLE,01/04/2016 13:32:00,,1397.00,790.00,239.00,105.00,68.00,90.00,35.00,22.00,APPROVED
FL: JACKSONVILLE,01/04/2016 14:32:00,,1408.00,803.00,243.00,104.00,67.00,88.00,36.00,22.00,APPROVED
FL: JACKSONVILLE,01/04/2016 15:33:00,,1388.00,789.00,242.00,103.00,69.00,91.00,38.00,22.00,APPROVED
FL: JACKSONVILLE,01/04/2016 16:33:00,,1376.00,776.00,243.00,101.00,69.00,89.00,36.00,22.00,APPROVED
FL: JACKSONVILLE,01/04/2016 17:33:00,,1338.00,777.00,243.00,104.00,69.00,92.00,37.00,22.00,APPROVED
FL: JACKSONVILLE,01/04/2016 18:33:00,,1310.00,763.00,246.00,104.00,68.00,92.00,38.00,22.00,APPROVED
FL: JACKSONVILLE,01/04/2016 19:33:00,,1304.00,760.00,243.00,104.00,71.00,89.00,40.00,24.00,APPROVED
FL: JACKSONVILLE,01/04/2016 20:34:00,,1283.00,757.00,240.00,104.00,69.00,91.00,39.00,24.00,APPROVED
FL: JACKSONVILLE,01/04/2016 21:34:00,,1273.00,750.00,242.00,103.00,69.00,92.00,38.00,22.00,APPROVED
FL: JACKSONVILLE,01/04/2016 22:34:00,,1307.00,761.00,241.00,107.00,68.00,92.00,39.00,22.00,APPROVED
FL: JACKSONVILLE,01/04/2016 23:34:00,,1353.00,773.00,240.00,103.00,68.00,93.00,36.00,24.00,APPROVED
FL: JACKSONVILLE,01/05/2016 00:34:00,,1379.00,773.00,236.00,103.00,68.00,88.00,35.00,23.00,APPROVED
FL: JACKSONVILLE,01/05/2016 01:35:00,,1391.00,770.00,234.00,101.00,69.00,87.00,35.00,23.00,APPROVED
FL: JACKSONVILLE,01/05/2016 02:35:00,,1396.00,783.00,237.00,102.00,67.00,88.00,35.00,22.00,APPROVED
FL: JACKSONVILLE,01/05/2016 03:35:00,,1406.00,790.00,244.00,101.00,70.00,87.00,37.00,23.00,APPROVED
FL: JACKSONVILLE,01/05/2016 04:35:00,,1410.00,793.00,240.00,101.00,68.00,87.00,37.00,22.00,APPROVED
FL: JACKSONVILLE,01/05/2016 05:35:00,,1404.00,794.00,239.00,104.00,68.00,90.00,37.00,23.00,APPROVED
FL: JACKSONVILLE,01/05/2016 06:36:00,,1379.00,785.00,239.00,100.00,67.00,87.00,34.00,21.00,APPROVED
FL: JACKSONVILLE,01/05/2016 07:36:00,,1369.00,766.00,234.00,100.00,67.00,85.00,35.00,21.00,APPROVED
FL: JACKSONVILLE,01/05/2016 08:36:00,,1358.00,764.00,234.00,103.00,68.00,86.00,35.00,22.00,APPROVED
FL: JACKSONVILLE,01/05/2016 09:36:00,,1352.00,753.00,227.00,99.00,66.00,84.00,35.00,22.00,APPROVED
FL: JACKSONVILLE,01/05/2016 10:36:00,,1317.00,740.00,222.00,93.00,64.00,83.00,34.00,21.00,APPROVED
FL: JACKSONVILLE,01/05/2016 11:37:00,,1319.00,726.00,221.00,95.00,64.00,83.00,34.00,22.00,APPROVED
FL: JACKSONVILLE,01/05/2016 12:37:00,,1319.00,734.00,218.00,94.00,64.00,82.00,33.00,22.00,APPROVED
FL: JACKSONVILLE,01/05/2016 13:37:00,,1317.00,728.00,220.00,94.00,63.00,83.00,34.00,21.00,APPROVED
FL: JACKSONVILLE,01/05/2016 14:37:00,,1310.00,726.00,217.00,94.00,62.00,82.00,32.00,21.00,APPROVED
FL: JACKSONVILLE,01/05/2016 15:37:00,,1298.00,707.00,217.00,94.00,61.00,79.00,32.00,22.00,APPROVED
FL: JACKSONVILLE,01/05/2016 16:38:00,,1295.00,706.00,213.00,93.00,62.00,82.00,32.00,20.00,APPROVED
FL: JACKSONVILLE,01/05/2016 17:38:00,,1294.00,699.00,212.00,91.00,62.00,77.00,32.00,21.00,APPROVED
FL: JACKSONVILLE,01/05/2016 18:38:00,,1284.00,698.00,213.00,91.00,62.00,77.00,31.00,21.00,APPROVED
FL: JACKSONVILLE,01/05/2016 19:38:00,,1288.00,698.00,213.00,94.00,63.00,78.00,30.00,21.00,APPROVED
FL: JACKSONVILLE,01/05/2016 20:51:00,,1284.00,684.00,204.00,90.00,59.00,75.00,29.00,21.00,APPROVED
FL: JACKSONVILLE,01/05/2016 21:51:00,,1275.00,691.00,202.00,92.00,60.00,77.00,30.00,21.00,APPROVED
FL: JACKSONVILLE,01/05/2016 22:52:00,,1266.00,685.00,202.00,89.00,61.00,74.00,29.00,21.00,APPROVED
FL: JACKSONVILLE,01/05/2016 23:52:00,,1266.00,674.00,203.00,90.00,59.00,74.00,30.00,22.00,APPROVED
FL: JACKSONVILLE,01/06/2016 00:52:00,,1269.00,684.00,203.00,92.00,59.00,77.00,30.00,22.00,APPROVED
FL: JACKSONVILLE,01/06/2016 01:52:00,,1269.00,690.00,202.00,90.00,59.00,76.00,31.00,22.00,APPROVED
FL: JACKSONVILLE,01/06/2016 02:52:00,,1277.00,679.00,201.00,90.00,61.00,78.00,30.00,21.00,APPROVED
FL: JACKSONVILLE,01/06/2016 03:53:00,,1274.00,674.00,202.00,89.00,60.00,76.00,30.00,22.00,APPROVED
FL: JACKSONVILLE,01/06/2016 04:53:00,,1285.00,692.00,200.00,89.00,59.00,76.00,30.00,21.00,APPROVED
FL: JACKSONVILLE,01/06/2016 05:53:00,,1283.00,685.00,205.00,89.00,60.00,76.00,30.00,21.00,APPROVED
FL: JACKSONVILLE,01/06/2016 06:53:00,,1283.00,700.00,209.00,90.00,59.00,78.00,32.00,22.00,APPROVED
FL: JACKSONVILLE,01/06/2016 07:53:00,,1287.00,698.00,208.00,91.00,62.00,76.00,32.00,21.00,APPROVED
FL: JACKSONVILLE,01/06/2016 08:54:00,,1296.00,700.00,207.00,91.00,61.00,77.00,31.00,21.00,APPROVED
FL: JACKSONVILLE,01/06/2016 09:54:00,,1298.00,692.00,208.00,92.00,61.00,78.00,32.00,21.00,APPROVED
FL: JACKSONVILLE,01/06/2016 10:54:00,,1314.00,718.00,216.00,95.00,61.00,78.00,34.00,21.00,APPROVED
FL: JACKSONVILLE,01/06/2016 11:54:00,,1363.00,763.00,229.00,98.00,65.00,86.00,35.00,22.00,APPROVED
FL: JACKSONVILLE,01/06/2016 12:54:00,,1396.00,790.00,240.00,101.00,68.00,88.00,35.00,21.00,APPROVED
FL: JACKSONVILLE,01/06/2016 13:55:00,,1387.00,781.00,236.00,104.00,67.00,89.00,35.00,22.00,APPROVED
FL: JACKSONVILLE,01/06/2016 14:55:00,,1366.00,760.00,231.00,102.00,66.00,87.00,36.00,22.00,APPROVED
FL: JACKSONVILLE,01/06/2016 15:55:00,,1331.00,735.00,221.00,97.00,65.00,83.00,33.00,21.00,APPROVED
FL: JACKSONVILLE,01/06/2016 16:55:00,,1341.00,742.00,226.00,100.00,65.00,83.00,33.00,21.00,APPROVED
FL: JACKSONVILLE,01/06/2016 17:55:00,,1318.00,723.00,220.00,95.00,64.00,82.00,33.00,22.00,APPROVED
FL: JACKSONVILLE,01/06/2016 19:10:00,,1252.00,742.00,211.00,104.00,64.00,76.00,45.00,22.00,APPROVED
FL: JACKSONVILLE,01/06/2016 20:11:00,,1240.00,736.00,209.00,102.00,62.00,77.00,46.00,22.00,APPROVED
FL: JACKSONVILLE,01/06/2016 21:11:00,,1240.00,741.00,212.00,100.00,65.00,77.00,44.00,21.00,APPROVED
FL: JACKSONVILLE,01/06/2016 22:11:00,,1255.00,734.00,211.00,103.00,62.00,75.00,46.00,20.00,APPROVED
FL: JACKSONVILLE,01/06/2016 23:11:00,,1239.00,745.00,211.00,101.00,64.00,75.00,45.00,21.00,APPROVED
FL: JACKSONVILLE,01/07/2016 00:11:00,,1247.00,739.00,208.00,102.00,63.00,77.00,45.00,20.00,APPROVED
FL: JACKSONVILLE,01/07/2016 01:12:00,,1245.00,737.00,214.00,104.00,64.00,76.00,44.00,21.00,APPROVED
FL: JACKSONVILLE,01/07/2016 02:12:00,,1257.00,742.00,211.00,103.00,62.00,78.00,45.00,20.00,APPROVED
FL: JACKSONVILLE,01/07/2016 03:12:00,,1260.00,742.00,214.00,103.00,65.00,75.00,45.00,21.00,APPROVED
FL: JACKSONVILLE,01/07/2016 04:12:00,,1263.00,746.00,212.00,103.00,63.00,75.00,47.00,20.00,APPROVED
FL: JACKSONVILLE,01/07/2016 05:12:00,,1252.00,744.00,214.00,105.00,65.00,75.00,44.00,21.00,APPROVED
FL: JACKSONVILLE,01/07/2016 06:13:00,,1256.00,746.00,213.00,104.00,64.00,78.00,44.00,21.00,APPROVED
FL: JACKSONVILLE,01/07/2016 07:13:00,,1255.00,758.00,213.00,103.00,64.00,76.00,46.00,21.00,APPROVED
FL: JACKSONVILLE,01/07/2016 08:13:00,,1261.00,754.00,213.00,107.00,65.00,77.00,47.00,21.00,APPROVED
FL: JACKSONVILLE,01/07/2016 09:13:00,,1270.00,751.00,210.00,104.00,64.00,77.00,46.00,21.00,APPROVED
FL: JACKSONVILLE,01/07/2016 10:13:00,,1274.00,757.00,217.00,107.00,66.00,77.00,46.00,21.00,APPROVED
FL: JACKSONVILLE,01/07/2016 11:14:00,,1273.00,762.00,218.00,108.00,63.00,78.00,47.00,22.00,APPROVED
FL: JACKSONVILLE,01/07/2016 12:14:00,,1274.00,763.00,213.00,107.00,66.00,77.00,47.00,22.00,APPROVED
FL: JACKSONVILLE,01/07/2016 13:14:00,,1261.00,768.00,217.00,110.00,66.00,79.00,47.00,22.00,APPROVED
FL: JACKSONVILLE,01/07/2016 14:14:00,,1269.00,763.00,217.00,108.00,66.00,79.00,47.00,22.00,APPROVED
FL: JACKSONVILLE,01/07/2016 15:14:00,,1267.00,758.00,222.00,111.00,67.00,81.00,48.00,21.00,APPROVED
FL: JACKSONVILLE,01/07/2016 16:15:00,,1255.00,763.00,219.00,110.00,67.00,79.00,47.00,22.00,APPROVED
FL: JACKSONVILLE,01/07/2016 17:15:00,,1247.00,753.00,215.00,110.00,66.00,77.00,47.00,23.00,APPROVED
FL: JACKSONVILLE,01/07/2016 18:15:00,,1235.00,756.00,216.00,109.00,66.00,78.00,46.00,22.00,APPROVED
FL: JACKSONVILLE,01/07/2016 19:15:00,,1233.00,752.00,213.00,109.00,63.00,78.00,48.00,22.00,APPROVED
FL: JACKSONVILLE,01/07/2016 20:15:00,,1210.00,740.00,212.00,107.00,64.00,77.00,46.00,22.00,APPROVED
FL: JACKSONVILLE,01/07/2016 21:16:00,,1201.00,734.00,214.00,108.00,65.00,76.00,46.00,23.00,APPROVED
FL: JACKSONVILLE,01/07/2016 22:16:00,,1214.00,743.00,213.00,109.00,64.00,77.00,48.00,22.00,APPROVED
FL: JACKSONVILLE,01/07/2016 23:16:00,,1230.00,755.00,213.00,109.00,65.00,76.00,48.00,22.00,APPROVED
FL: JACKSONVILLE,01/08/2016 00:16:00,,1239.00,760.00,216.00,110.00,69.00,81.00,49.00,21.00,APPROVED
FL: JACKSONVILLE,01/08/2016 01:16:00,,1237.00,755.00,213.00,109.00,65.00,78.00,47.00,22.00,APPROVED
FL: JACKSONVILLE,01/08/2016 02:17:00,,1229.00,761.00,214.00,111.00,66.00,80.00,48.00,23.00,APPROVED
FL: JACKSONVILLE,01/08/2016 03:17:00,,1238.00,756.00,215.00,113.00,66.00,80.00,47.00,23.00,APPROVED
FL: JACKSONVILLE,01/08/2016 04:17:00,,1219.00,755.00,212.00,112.00,65.00,79.00,47.00,23.00,APPROVED
FL: JACKSONVILLE,01/08/2016 05:17:00,,1219.00,748.00,212.00,111.00,65.00,79.00,49.00,23.00,APPROVED
FL: JACKSONVILLE,01/08/2016 06:17:00,,1225.00,749.00,212.00,109.00,66.00,79.00,48.00,24.00,APPROVED
FL: JACKSONVILLE,01/08/2016 07:18:00,,1235.00,767.00,221.00,115.00,66.00,81.00,50.00,22.00,APPROVED
FL: JACKSONVILLE,01/08/2016 08:18:00,,1283.00,813.00,230.00,127.00,72.00,85.00,52.00,25.00,APPROVED
FL: JACKSONVILLE,01/08/2016 09:18:00,,1256.00,783.00,222.00,120.00,69.00,85.00,50.00,24.00,APPROVED
FL: JACKSONVILLE,01/08/2016 10:18:00,,1222.00,767.00,218.00,118.00,67.00,81.00,48.00,23.00,APPROVED
FL: JACKSONVILLE,01/08/2016 11:18:00,,1255.00,790.00,227.00,120.00,71.00,83.00,52.00,25.00,APPROVED
FL: JACKSONVILLE,01/08/2016 12:19:00,,1229.00,776.00,218.00,116.00,67.00,82.00,50.00,24.00,APPROVED
FL: JACKSONVILLE,01/08/2016 13:19:00,,1230.00,775.00,221.00,119.00,69.00,81.00,50.00,24.00,APPROVED
FL: JACKSONVILLE,01/08/2016 14:19:00,,1208.00,759.00,217.00,116.00,67.00,81.00,49.00,24.00,APPROVED
FL: JACKSONVILLE,01/08/2016 15:19:00,,1188.00,738.00,211.00,112.00,65.00,78.00,48.00,24.00,APPROVED
FL: JACKSONVILLE,01/08/2016 17:05:00,,1150.00,711.00,206.00,107.00,63.00,77.00,47.00,23.00,APPROVED
FL: JACKSONVILLE,01/08/2016 18:05:00,,1101.00,687.00,203.00,105.00,63.00,77.00,50.00,23.00,APPROVED
FL: JACKSONVILLE,01/08/2016 19:06:00,,1124.00,704.00,204.00,109.00,66.00,77.00,48.00,24.00,APPROVED
FL: JACKSONVILLE,01/08/2016 20:06:00,,1153.00,719.00,209.00,107.00,66.00,77.00,46.00,23.00,APPROVED
FL: JACKSONVILLE,01/08/2016 21:06:00,,1160.00,711.00,209.00,106.00,65.00,77.00,47.00,24.00,APPROVED
FL: JACKSONVILLE,01/08/2016 22:06:00,,1155.00,708.00,204.00,107.00,63.00,76.00,49.00,23.00,APPROVED
FL: JACKSONVILLE,01/08/2016 23:06:00,,1152.00,699.00,204.00,106.00,65.00,76.00,48.00,22.00,APPROVED
FL: JACKSONVILLE,01/09/2016 00:07:00,,1162.00,719.00,204.00,106.00,62.00,74.00,47.00,22.00,APPROVED
FL: JACKSONVILLE,01/09/2016 01:07:00,,1181.00,720.00,207.00,106.00,64.00,76.00,48.00,23.00,APPROVED
FL: JACKSONVILLE,01/09/2016 02:07:00,,1194.00,736.00,211.00,110.00,65.00,77.00,48.00,23.00,APPROVED
FL: JACKSONVILLE,01/09/2016 03:07:00,,1211.00,754.00,209.00,112.00,66.00,78.00,47.00,23.00,APPROVED
FL: JACKSONVILLE,01/09/2016 04:07:00,,1218.00,759.00,210.00,113.00,68.00,79.00,49.00,23.00,APPROVED
FL: JACKSONVILLE,01/09/2016 05:08:00,,1243.00,769.00,213.00,115.00,66.00,83.00,47.00,23.00,APPROVED
FL: JACKSONVILLE,01/09/2016 06:08:00,,1236.00,767.00,220.00,115.00,67.00,78.00,50.00,23.00,APPROVED
FL: JACKSONVILLE,01/09/2016 07:08:00,,1255.00,769.00,212.00,118.00,66.00,81.00,50.00,24.00,APPROVED
FL: JACKSONVILLE,01/09/2016 08:08:00,,1250.00,781.00,220.00,117.00,67.00,84.00,50.00,23.00,APPROVED
FL: JACKSONVILLE,01/09/2016 09:08:00,,1253.00,780.00,221.00,117.00,70.00,79.00,50.00,24.00,APPROVED
FL: JACKSONVILLE,01/09/2016 10:09:00,,1243.00,773.00,221.00,117.00,67.00,82.00,52.00,24.00,APPROVED
FL: JACKSONVILLE,01/09/2016 11:09:00,,1247.00,774.00,217.00,114.00,66.00,79.00,49.00,24.00,APPROVED
FL: JACKSONVILLE,01/09/2016 12:09:00,,1243.00,764.00,218.00,116.00,66.00,82.00,50.00,24.00,APPROVED
FL: JACKSONVILLE,01/09/2016 13:09:00,,1236.00,770.00,214.00,112.00,66.00,78.00,49.00,23.00,APPROVED
FL: JACKSONVILLE,01/09/2016 14:09:00,,1232.00,766.00,216.00,113.00,66.00,78.00,48.00,23.00,APPROVED
FL: JACKSONVILLE,01/09/2016 15:10:00,,1226.00,756.00,213.00,117.00,67.00,79.00,51.00,23.00,APPROVED
FL: JACKSONVILLE,01/09/2016 16:10:00,,1212.00,754.00,214.00,116.00,67.00,79.00,49.00,24.00,APPROVED
FL: JACKSONVILLE,01/09/2016 17:10:00,,1202.00,760.00,216.00,114.00,67.00,79.00,48.00,24.00,APPROVED
FL: JACKSONVILLE,01/09/2016 18:10:00,,1191.00,751.00,211.00,117.00,69.00,80.00,50.00,24.00,APPROVED
FL: JACKSONVILLE,01/09/2016 19:10:00,,1200.00,751.00,215.00,116.00,67.00,79.00,50.00,23.00,APPROVED
FL: JACKSONVILLE,01/09/2016 20:11:00,,1204.00,759.00,221.00,117.00,68.00,81.00,51.00,25.00,APPROVED
FL: JACKSONVILLE,01/09/2016 21:11:00,,1212.00,766.00,219.00,119.00,67.00,82.00,51.00,24.00,APPROVED
FL: JACKSONVILLE,01/09/2016 22:11:00,,1260.00,802.00,229.00,123.00,70.00,83.00,52.00,23.00,APPROVED
FL: JACKSONVILLE,01/09/2016 23:11:00,,1272.00,803.00,226.00,126.00,70.00,85.00,52.00,24.00,APPROVED
FL: JACKSONVILLE,01/10/2016 00:11:00,,1255.00,793.00,222.00,123.00,69.00,84.00,51.00,25.00,APPROVED
FL: JACKSONVILLE,01/10/2016 01:12:00,,1249.00,780.00,224.00,119.00,69.00,83.00,51.00,23.00,APPROVED
FL: JACKSONVILLE,01/10/2016 02:12:00,,1236.00,781.00,220.00,122.00,68.00,83.00,50.00,23.00,APPROVED
FL: JACKSONVILLE,01/10/2016 03:12:00,,1232.00,773.00,219.00,116.00,68.00,80.00,50.00,24.00,APPROVED
FL: JACKSONVILLE,01/10/2016 04:12:00,,1233.00,781.00,218.00,119.00,68.00,81.00,50.00,25.00,APPROVED
FL: JACKSONVILLE,01/10/2016 05:12:00,,1240.00,780.00,221.00,120.00,68.00,81.00,50.00,24.00,APPROVED
FL: JACKSONVILLE,01/10/2016 06:13:00,,1248.00,788.00,218.00,117.00,68.00,80.00,51.00,24.00,APPROVED
FL: JACKSONVILLE,01/10/2016 07:13:00,,1242.00,778.00,218.00,117.00,68.00,80.00,51.00,24.00,APPROVED
FL: JACKSONVILLE,01/10/2016 08:13:00,,1262.00,795.00,227.00,122.00,71.00,83.00,52.00,25.00,APPROVED
FL: JACKSONVILLE,01/10/2016 09:13:00,,1292.00,844.00,232.00,132.00,73.00,88.00,55.00,25.00,APPROVED
FL: JACKSONVILLE,01/10/2016 10:13:00,,1301.00,841.00,239.00,139.00,75.00,92.00,56.00,27.00,APPROVED
FL: JACKSONVILLE,01/10/2016 11:14:00,,1264.00,830.00,229.00,136.00,74.00,90.00,55.00,27.00,APPROVED
FL: JACKSONVILLE,01/10/2016 12:14:00,,1225.00,782.00,224.00,126.00,69.00,84.00,54.00,24.00,APPROVED
FL: JACKSONVILLE,01/10/2016 13:14:00,,1206.00,768.00,218.00,113.00,65.00,81.00,50.00,25.00,APPROVED
FL: JACKSONVILLE,01/10/2016 14:14:00,,1210.00,754.00,214.00,115.00,66.00,76.00,49.00,23.00,APPROVED
FL: JACKSONVILLE,01/10/2016 15:14:00,,1215.00,752.00,213.00,113.00,67.00,81.00,48.00,23.00,APPROVED
FL: JACKSONVILLE,01/10/2016 16:15:00,,1195.00,736.00,215.00,114.00,66.00,80.00,48.00,24.00,APPROVED
FL: JACKSONVILLE,01/10/2016 17:15:00,,1188.00,738.00,216.00,112.00,66.00,78.00,50.00,23.00,APPROVED
FL: JACKSONVILLE,01/10/2016 18:15:00,,1196.00,747.00,219.00,117.00,68.00,80.00,51.00,24.00,APPROVED
FL: JACKSONVILLE,01/10/2016 19:15:00,,1227.00,773.00,220.00,115.00,67.00,81.00,51.00,23.00,APPROVED
FL: JACKSONVILLE,01/10/2016 20:15:00,,1247.00,778.00,219.00,115.00,69.00,83.00,50.00,24.00,APPROVED
FL: JACKSONVILLE,01/10/2016 21:16:00,,1263.00,782.00,220.00,116.00,68.00,82.00,49.00,24.00,APPROVED
FL: JACKSONVILLE,01/10/2016 22:16:00,,1274.00,793.00,222.00,119.00,69.00,82.00,49.00,24.00,APPROVED